S57U-6 Weather Reports


Display with metric or nautical units.
time (UTC)temp
F
wind
direction
speed
MPH
gust
MPH
rain 1hr
in
rain 24hr
in
rain mn
in
humidity
%
barometer
mb
20181121025236 32 68 0.0 0.0 0.00 0.00 0.00 95 1006.0
20181121024036 32 113 0.0 0.0 0.00 0.00 0.00 95 1006.0
20181121015236 32 203 0.0 0.0 0.00 0.00 0.00 95 1005.7
20181121002837 31 90 0.0 0.0 0.00 0.00 0.00 95 1004.6
20181121000357 32 90 0.0 0.0 0.00 0.00 0.00 95 1005.0
20181120235211 32 90 0.0 0.0 0.00 0.00 0.00 95 1004.8
20181120223952 31 68 0.0 0.0 0.00 0.00 0.00 95 1005.6
20181120222752 31 113 0.0 0.0 0.00 0.00 0.00 95 1005.6
20181120221552 31 135 0.0 0.0 0.00 0.00 0.00 95 1005.9
20181120220352 31 158 0.0 0.0 0.00 0.00 0.00 95 1005.8
20181120213953 31 225 0.0 0.0 0.00 0.00 0.00 95 1005.8
20181120210353 31 203 0.0 0.0 0.00 0.00 0.00 95 1005.6
20181120205153 31 68 0.0 0.0 0.00 0.00 0.00 95 1005.5
20181120202753 31 68 0.0 0.0 0.00 0.00 0.00 95 1005.1
20181120201553 31 68 0.0 0.0 0.00 0.00 0.00 95 1004.9
20181120195238 31 68 0.0 0.0 0.00 0.00 0.00 95 1004.7
20181120193953 31 68 0.0 0.0 0.00 0.00 0.00 95 1004.8
20181120192753 31 68 0.0 0.0 0.00 0.00 0.00 95 1004.6
20181120190358 31 68 0.0 0.0 0.00 0.00 0.00 95 1004.6
20181120182753 31 68 0.0 0.0 0.00 0.00 0.00 95 1004.6
20181120175158 31 68 0.0 0.0 0.00 0.00 0.00 95 1004.6
20181120173954 31 90 0.0 0.0 0.00 0.00 0.00 95 1004.7
20181120165154 31 113 0.0 0.0 0.00 0.00 0.00 95 1004.3
20181120163956 31 113 0.0 0.0 0.00 0.00 0.00 95 1004.2
20181120160354 31 113 0.0 0.0 0.00 0.00 0.00 95 1003.6
20181120152757 31 68 0.0 0.0 0.00 0.00 0.00 95 1003.2
20181120151559 31 68 0.0 0.0 0.00 0.00 0.00 95 1003.1
20181120145201 31 45 0.0 0.0 0.00 0.00 0.00 95 1003.0
20181120142802 32 45 0.0 0.0 0.00 0.00 0.00 95 1002.9
20181120140354 32 45 0.0 0.0 0.00 0.00 0.00 95 1002.9
20181120133955 31 68 0.0 0.0 0.00 0.00 0.00 95 1003.2
20181120132755 32 68 0.0 0.0 0.00 0.00 0.00 95 1003.2
20181120125240 32 45 0.0 0.0 0.00 0.00 0.00 95 1003.2
20181120124040 31 45 0.0 0.0 0.00 0.00 0.00 95 1003.1
20181120122840 31 45 0.0 0.0 0.00 0.00 0.00 95 1003.3
20181120120357 31 68 0.0 0.0 0.00 0.00 0.00 95 1003.6
20181120115158 32 68 0.0 0.0 0.00 0.00 0.00 95 1003.6
20181120111558 31 45 0.0 0.0 0.00 0.00 0.00 95 1003.5
20181120110355 31 45 0.0 0.0 0.00 0.00 0.00 95 1003.5
20181120103958 31 68 0.0 0.0 0.00 0.00 0.00 95 1003.6
20181120093958 31 45 0.0 0.0 0.00 0.00 0.00 95 1003.6
20181120091601 31 45 0.0 0.0 0.00 0.00 0.00 95 1003.6
20181120084008 30 45 0.0 0.0 0.00 0.00 0.00 95 1003.3
20181120082810 30 45 0.0 0.0 0.00 0.00 0.00 95 1003.2
20181120081601 30 68 0.0 0.0 0.00 0.00 0.00 95 1003.1
20181120075201 29 68 0.0 0.0 0.00 0.00 0.00 95 1003.5
20181120070356 29 68 0.0 0.0 0.00 0.00 0.00 95 1003.2
20181120055206 29 68 0.0 0.0 0.00 0.00 0.00 95 1002.9
20181120041619 29 45 0.0 0.0 0.00 0.00 0.00 95 1003.1